[[{"header":{"parameterUnit":"m.s-1","parameterCategory":1,"la1":30.2991,"la2":30.254,"lo1":-89.0895,"lo2":-89.0444,"dy":0.0017,"dx":0.0017,"nx":28,"ny":28,"refTime":"2023-11-22T09:00:00:Z","depth":0,"parameterNumber":2,"parameterNumberName":"U-component_of_WINDS"},"data":[0,0,0,0,0,0,0,0,0,0,0,0,0,0,0,0,0,0,0,0,0,0,0,0,0,0,0,0,0,0,0,0,0,0,0,0,0,0,0,0,0,0,0,0,0,0,0,0,0,0,0,0,0,0,0,0,0,0,1.895,1.8951,0,1.8968,1.8969,1.8969,1.8951,1.895,1.895,1.8949,1.8967,1.8968,1.897,0,0,0,0,0,0,0,0,0,0,0,0,0,1.8902,1.8903,1.895,1.8951,1.8951,1.8968,1.8969,1.8969,1.8951,1.895,1.8949,1.8949,1.8967,1.8968,1.897,0,0,0,0,0,0,0,0,0,0,0,0,0,1.8922,1.8903,1.895,1.8944,1.8944,1.8968,1.8969,1.8969,1.8951,1.895,1.8949,1.8948,1.8967,1.8968,1.897,1.9002,0,0,1.8975,1.8976,0,0,0,0,0,0,0,0,1.8921,1.8924,1.8945,1.8945,1.8944,1.8956,1.8958,1.898,1.8951,1.8948,1.8949,1.8948,1.8965,1.8966,1.8972,1.9002,1.9003,1.8975,1.8976,1.8977,1.8978,0,0,0,0,0,0,0,1.8919,1.8923,1.8957,1.8945,1.8945,1.8941,1.8942,1.8962,1.8962,1.8949,1.8947,1.895,1.8964,1.897,1.8972,1.9004,1.8975,1.8977,1.8978,1.8979,1.9063,1.9064,0,0,0,0,0,0,1.8919,1.8922,1.8957,1.8958,1.893,1.8943,1.8944,1.8953,1.8962,1.8962,1.8951,1.8949,1.8968,1.897,1.8973,1.9012,1.8977,1.8979,1.898,1.9062,1.9063,1.9064,0,0,0,0,0,0,1.8918,1.8922,1.8956,1.894,1.8944,1.8944,1.8955,1.8954,1.8961,1.8963,1.8963,1.8957,1.8967,1.8971,1.8995,1.9012,1.8979,1.8981,1.906,1.9062,1.9064,1.9089,0,0,0,0,0,0,1.8916,1.8922,1.8933,1.894,1.8945,1.8978,1.8956,1.8956,1.8964,1.8961,1.8969,1.897,1.8967,1.8993,1.8997,1.9014,1.8982,1.9059,1.9061,1.9063,1.9086,1.9091,1.9095,0,0,0,0,0,1.8915,1.8939,1.8934,1.8938,1.8959,1.8979,1.8981,1.8977,1.8965,1.8977,1.8979,1.8969,1.901,1.8995,1.9,1.9018,1.9058,1.906,1.9063,1.9084,1.909,1.9095,0,0,0,0,0,0,1.8934,1.894,1.8934,1.8961,1.897,1.8975,1.899,1.8983,1.8995,1.8993,1.8988,1.899,1.9016,1.9019,1.9003,1.905,1.9032,1.9035,1.9046,1.9052,1.9056,1.9055,1.8984,0,0,0,0,0,1.8941,1.8956,1.8961,1.8985,1.8989,1.8989,1.8998,1.8994,1.9002,1.9006,1.901,1.9018,1.9033,1.9043,1.9056,1.9087,1.9089,1.9102,1.9106,1.911,1.9113,1.9131,1.9137,1.9073,1.9073,1.9073,0,0,1.8957,1.8962,1.8972,1.8989,1.8995,1.9011,1.8992,1.901,1.9022,1.9008,1.9032,1.9035,1.9045,1.9073,1.9086,1.9077,1.9131,1.9113,1.9116,1.9117,1.9134,1.914,1.9146,1.9075,1.9075,1.9075,0,0,1.8993,1.8999,1.902,1.9026,1.9036,1.9036,1.9041,1.9049,1.905,1.9074,1.9065,1.908,1.9105,1.9112,1.9119,1.9161,1.9153,1.9166,1.9189,1.9206,1.9211,1.9216,1.9232,1.9237,1.9169,1.9169,1.9169,0,1.9011,1.9035,1.9031,1.905,1.9058,1.9047,1.9069,1.9076,1.909,1.9096,1.9086,1.9118,1.9124,1.9154,1.9165,1.9171,1.9177,1.9165,1.9211,1.9215,1.922,1.9234,1.924,1.9171,1.917,1.917,1.917,0,1.9057,1.9074,1.909,1.9104,1.9114,1.9135,1.9134,1.9145,1.9142,1.9143,1.9168,1.9175,1.919,1.9197,1.9193,1.9228,1.9222,1.9212,1.9193,1.9227,1.9241,1.9247,1.9173,1.9172,1.9172,1.9171,0,0,1.9105,1.9118,1.9124,1.9131,1.9142,1.9155,1.9175,1.9191,1.9201,1.9211,1.9229,1.9251,1.9242,1.925,1.9247,1.9263,1.9297,1.9251,1.9251,1.926,1.9337,1.9345,1.9351,1.9292,1.9293,1.9294,1.9336,0,1.9143,1.9178,1.9176,1.9209,1.9226,1.9216,1.9234,1.9243,1.9246,1.9261,1.9263,1.928,1.9266,1.9271,1.9286,1.929,1.9312,1.9287,1.9309,1.9309,1.9307,1.9358,1.9366,1.9406,1.9341,1.9342,1.9343,0,1.9191,1.9204,1.9239,1.9249,1.9255,1.9271,1.9286,1.93,1.9311,1.9312,1.9322,1.9317,1.9339,1.932,1.9351,1.9333,1.9342,1.9346,1.9347,1.9349,1.9328,1.9362,1.9418,1.9424,1.9351,1.9351,1.935,0,1.9223,1.9249,1.9274,1.928,1.9292,1.9304,1.9309,1.9319,1.9329,1.9342,1.9348,1.9364,1.9373,1.9385,1.9385,1.9371,1.9416,1.9397,1.9418,1.9418,1.9427,1.9427,1.9486,1.9433,1.9433,1.9433,1.9433,0,1.9265,1.9287,1.9289,1.9304,1.9329,1.9327,1.9352,1.9356,1.9365,1.9382,1.9375,1.939,1.9389,1.9405,1.9405,1.9431,1.9435,1.9437,1.9437,1.9438,1.9437,1.9443,1.9441,1.9434,1.9434,1.9434,1.9434,0,1.9305,1.9307,1.9334,1.9343,1.9346,1.9364,1.9373,1.9388,1.939,1.9411,1.9416,1.942,1.9439,1.944,1.9462,1.9462,1.9494,1.949,1.949,1.949,1.951,1.9509,1.9576,1.9585,1.9526,1.9526,1.9527,0,1.9332,1.9349,1.9361,1.9372,1.9378,1.9395,1.9406,1.9405,1.9416,1.9431,1.9444,1.9462,1.9477,1.9508,1.9513,1.953,1.9527,1.955,1.953,1.9531,1.9528,1.9528,1.953,1.9554,1.9554,1.9555,1.9555,0,1.938,1.938,1.9395,1.9412,1.9425,1.9437,1.9449,1.9458,1.9459,1.9472,1.9492,1.9503,1.9526,1.9545,1.9562,1.9568,1.9562,1.9562,1.9567,1.9568,1.9568,1.9569,1.9501,1.956,1.9559,1.9559,1.9559,1.9559,1.9414,1.943,1.9441,1.9458,1.9467,1.9479,1.9494,1.9499,1.9515,1.9534,1.9533,1.9554,1.9566,1.9589,1.9596,1.9614,1.9606,1.9615,1.9617,1.9619,1.9621,1.9565,1.9617,1.9617,1.9617,1.9617,1.9617,0,1.9462,1.9469,1.9486,1.9503,1.9517,1.9511,1.9524,1.9537,1.9556,1.9568,1.9583,1.9606,1.9624,1.9632,1.965,1.9663,1.9661,1.9668,1.9667,1.9669,1.9627,1.962,1.9669,1.9669,1.9669,1.9669,1.9669,1.9669,1.9489,1.9515,1.9517,1.9547,1.9554,1.9576,1.9584,1.9595,1.9605,1.9631,1.9647,1.9651,1.9662,1.9681,1.9698,1.97,1.9707,1.9716,1.9716,1.9677,1.9671,1.9666,1.966,1.9717,1.9717,1.9757,1.9757,1.9758]},{"header":{"parameterUnit":"m.s-1","parameterCategory":1,"la1":30.2991,"la2":30.254,"lo1":-89.0895,"lo2":-89.0444,"dy":0.0017,"dx":0.0017,"nx":28,"ny":28,"refTime":"2023-11-22T09:00:00:Z","depth":0,"parameterNumber":3,"parameterNumberName":"V-component_of_WINDS"},"data":[0,0,0,0,0,0,0,0,0,0,0,0,0,0,0,0,0,0,0,0,0,0,0,0,0,0,0,0,0,0,0,0,0,0,0,0,0,0,0,0,0,0,0,0,0,0,0,0,0,0,0,0,0,0,0,0,0,0,-5.4881,-5.4882,0,-5.5,-5.5001,-5.5003,-5.5007,-5.5005,-5.5004,-5.5002,-5.512,-5.5124,-5.5129,0,0,0,0,0,0,0,0,0,0,0,0,0,-5.4655,-5.4659,-5.4881,-5.4883,-5.4884,-5.5,-5.5002,-5.5003,-5.5007,-5.5005,-5.5003,-5.5002,-5.5118,-5.5124,-5.5129,0,0,0,0,0,0,0,0,0,0,0,0,0,-5.4761,-5.466,-5.4881,-5.49,-5.4903,-5.5,-5.5002,-5.5004,-5.5007,-5.5005,-5.5003,-5.5001,-5.5117,-5.5123,-5.513,-5.5214,0,0,-5.515,-5.5153,0,0,0,0,0,0,0,0,-5.4755,-5.4769,-5.4896,-5.4899,-5.4902,-5.4986,-5.4965,-5.5074,-5.5008,-5.4967,-5.5002,-5.5,-5.5077,-5.5087,-5.5114,-5.522,-5.5225,-5.5151,-5.5155,-5.5158,-5.516,0,0,0,0,0,0,0,-5.4748,-5.4764,-5.4928,-5.4897,-5.4902,-5.4902,-5.4915,-5.4986,-5.5033,-5.4971,-5.4971,-5.4986,-5.5078,-5.5107,-5.5116,-5.5226,-5.5151,-5.5157,-5.5161,-5.5163,-5.541,-5.5412,0,0,0,0,0,0,-5.4737,-5.4758,-5.4924,-5.4932,-5.4822,-5.4908,-5.4922,-5.4961,-5.5032,-5.5041,-5.4987,-5.4985,-5.5097,-5.5109,-5.5121,-5.5225,-5.5158,-5.5164,-5.5168,-5.5407,-5.541,-5.5413,0,0,0,0,0,0,-5.4732,-5.4752,-5.4919,-5.4845,-5.4867,-5.4914,-5.4958,-5.4965,-5.4994,-5.5045,-5.5053,-5.5008,-5.5096,-5.5111,-5.5192,-5.5229,-5.5167,-5.5173,-5.5404,-5.5408,-5.5412,-5.5435,0,0,0,0,0,0,-5.4726,-5.475,-5.4783,-5.4846,-5.4871,-5.4989,-5.4961,-5.4969,-5.5006,-5.5005,-5.5066,-5.5074,-5.5095,-5.5182,-5.5198,-5.5238,-5.5178,-5.5401,-5.5406,-5.541,-5.5431,-5.5439,-5.5446,0,0,0,0,0,-5.4717,-5.4783,-5.4785,-5.4805,-5.4913,-5.4991,-5.5005,-5.5029,-5.5009,-5.5042,-5.5075,-5.5073,-5.5223,-5.519,-5.5209,-5.525,-5.5399,-5.5405,-5.541,-5.5427,-5.5437,-5.5446,0,0,0,0,0,0,-5.4721,-5.4792,-5.4794,-5.4882,-5.4931,-5.4992,-5.5035,-5.5038,-5.5093,-5.5089,-5.5114,-5.5128,-5.5209,-5.5237,-5.52,-5.5337,-5.5308,-5.5318,-5.5315,-5.5325,-5.5332,-5.5323,-5.5184,0,0,0,0,0,-5.4733,-5.4792,-5.485,-5.4922,-5.4947,-5.4987,-5.5022,-5.5036,-5.5087,-5.5107,-5.5146,-5.5194,-5.5253,-5.529,-5.5346,-5.5435,-5.5449,-5.5473,-5.5481,-5.5487,-5.5495,-5.5545,-5.5557,-5.5432,-5.5432,-5.5431,0,0,-5.4756,-5.4802,-5.4837,-5.4924,-5.4964,-5.5024,-5.5004,-5.5067,-5.5112,-5.5116,-5.5195,-5.5226,-5.5282,-5.5367,-5.5407,-5.5394,-5.5533,-5.5494,-5.5498,-5.5503,-5.5552,-5.5564,-5.5575,-5.5435,-5.5435,-5.5434,0,0,-5.483,-5.4871,-5.4936,-5.4977,-5.5038,-5.5065,-5.508,-5.5142,-5.5163,-5.5243,-5.5248,-5.5301,-5.54,-5.5441,-5.5474,-5.5566,-5.5566,-5.5584,-5.5623,-5.5672,-5.5682,-5.5691,-5.5724,-5.5736,-5.5592,-5.5592,-5.5592,0,-5.4851,-5.4943,-5.4969,-5.5034,-5.5072,-5.5081,-5.5148,-5.5186,-5.5261,-5.5287,-5.5272,-5.5399,-5.5437,-5.5533,-5.5556,-5.5582,-5.5601,-5.5577,-5.5678,-5.5688,-5.5696,-5.5729,-5.5741,-5.5594,-5.5593,-5.5593,-5.5593,0,-5.4967,-5.503,-5.5076,-5.5151,-5.5195,-5.526,-5.5296,-5.5336,-5.5348,-5.5376,-5.5458,-5.5505,-5.5571,-5.5595,-5.5605,-5.5693,-5.5684,-5.5673,-5.5645,-5.571,-5.5741,-5.5753,-5.5596,-5.5595,-5.5595,-5.5594,0,0,-5.5044,-5.5136,-5.5152,-5.5187,-5.5256,-5.5306,-5.5372,-5.5439,-5.5474,-5.5526,-5.5583,-5.5668,-5.566,-5.5698,-5.5713,-5.5756,-5.5828,-5.5741,-5.5742,-5.5756,-5.5929,-5.5936,-5.595,-5.5829,-5.5831,-5.5833,-5.5924,0,-5.5126,-5.5246,-5.5272,-5.5375,-5.5435,-5.5445,-5.5503,-5.5551,-5.558,-5.5634,-5.5665,-5.5726,-5.571,-5.5733,-5.5776,-5.581,-5.5863,-5.5804,-5.5881,-5.5883,-5.5867,-5.5966,-5.5974,-5.6058,-5.5936,-5.5938,-5.594,0,-5.5238,-5.5295,-5.5404,-5.5468,-5.5494,-5.5546,-5.5611,-5.5662,-5.5718,-5.5736,-5.578,-5.5791,-5.586,-5.5829,-5.5925,-5.5884,-5.5918,-5.5939,-5.5943,-5.5951,-5.5915,-5.5977,-5.6085,-5.6098,-5.5959,-5.5958,-5.5956,0,-5.5285,-5.5389,-5.5469,-5.5498,-5.5574,-5.5611,-5.5643,-5.5697,-5.5737,-5.5793,-5.5819,-5.5882,-5.5916,-5.5965,-5.5993,-5.5968,-5.6087,-5.6058,-5.6104,-5.6103,-5.6128,-5.6126,-5.6243,-5.6149,-5.6149,-5.6148,-5.6148,0,-5.5373,-5.544,-5.5491,-5.554,-5.5615,-5.5645,-5.5719,-5.5751,-5.5799,-5.5855,-5.5867,-5.5918,-5.5952,-5.6008,-5.603,-5.6107,-5.6122,-5.6138,-5.6143,-5.6137,-5.6136,-5.6159,-5.6154,-5.6152,-5.6151,-5.615,-5.615,0,-5.5438,-5.5475,-5.5563,-5.5629,-5.5647,-5.5699,-5.5755,-5.5803,-5.5833,-5.5902,-5.592,-5.5966,-5.6033,-5.6067,-5.6149,-5.6164,-5.6251,-5.6252,-5.6233,-5.6235,-5.6279,-5.6275,-5.6416,-5.6436,-5.6328,-5.6329,-5.633,0,-5.5493,-5.5545,-5.5617,-5.5656,-5.569,-5.5752,-5.5793,-5.5825,-5.5867,-5.5936,-5.5976,-5.6044,-5.61,-5.6206,-5.6246,-5.631,-5.6313,-5.6358,-5.6322,-5.6316,-5.6315,-5.6311,-5.6317,-5.6364,-5.6365,-5.6366,-5.6367,0,-5.5585,-5.5602,-5.5662,-5.5729,-5.5779,-5.5832,-5.5885,-5.5916,-5.5956,-5.6003,-5.6073,-5.6117,-5.6203,-5.627,-5.6337,-5.637,-5.6376,-5.6378,-5.6392,-5.6387,-5.6374,-5.6382,-5.6251,-5.6374,-5.6374,-5.6373,-5.6373,-5.6372,-5.5647,-5.5695,-5.5754,-5.5821,-5.5864,-5.5914,-5.5963,-5.6,-5.6059,-5.6133,-5.6148,-5.6222,-5.6278,-5.6369,-5.6404,-5.6463,-5.6452,-5.6472,-5.6478,-5.6482,-5.6485,-5.6365,-5.6475,-5.6474,-5.6474,-5.6474,-5.6474,0,-5.5741,-5.5781,-5.5842,-5.5917,-5.597,-5.5973,-5.6032,-5.6075,-5.6141,-5.6194,-5.625,-5.633,-5.6397,-5.6443,-5.651,-5.6548,-5.6552,-5.6565,-5.6562,-5.657,-5.649,-5.6471,-5.656,-5.656,-5.656,-5.656,-5.656,-5.656,-5.5797,-5.5878,-5.5902,-5.6005,-5.6043,-5.6118,-5.6151,-5.6198,-5.624,-5.633,-5.6386,-5.6417,-5.6467,-5.6539,-5.66,-5.6612,-5.6636,-5.6649,-5.6661,-5.6585,-5.6575,-5.6567,-5.655,-5.6654,-5.6654,-5.6736,-5.6737,-5.6738]}]]